Location: Capannuccia
(43.7000°N, 11.3000°E)
Time: 20:03:42
(UTC+00:00)

USA 229 - Pass Details

Date: 07 June 2020
Orbit: 980 x 1233 km, 63.4° (Epoch: 24 June)

Event Time Altitude Azimuth Distance (km) Brightness Sun altitude
Rises 01:07:57 0° 322° (NW) 3,964 7.0 -18.5°
Reaches altitude 10° 01:10:35 10° 322° (NW) 3,037 6.4 -18.3°
Maximum altitude 01:17:54 82° 236° (SW) 1,203 3.8 -17.7°
Drops below altitude 10° 01:25:33 10° 150° (SSE) 3,166 5.9 -17.0°
Sets 01:28:20 0° 150° (SSE) 4,141 6.5 -16.7°
